Regional Weather Roundup
Issued by NWS Albany, NY

Home | Current Version | Previous Version | Graphics & Text | Print | Product List | Glossary On
Versions: 1 2 3 4 5 6 7 8 9 10 11 12 13 14 15 16 17 18 19 20 21 22 23 24 25 26 27 28 29 30 31 32 33 34 35 36 37 38 39 40 41 42 43 44 45 46 47 48 49 50
000
ASUS41 KALY 110810
RWRALY

NEW YORK STATE HOURLY WEATHER ROUNDUP
NATIONAL WEATHER SERVICE ALBANY NY
300 AM EST MON DEC 11 2017

NOTE: "FAIR" INDICATES FEW OR NO CLOUDS BELOW 12,000 FEET WITH NO
SIGNIFICANT WEATHER AND/OR NO OBSTRUCTIONS TO VISIBILITY.

NYZ032-033-038>043-046>054-057>066-NYZ062>081-082-084-110900-
EAST


CITY           SKY/WX    TMP DP  RH WIND       PRES   REMARKS
ALBANY         CLOUDY    31  21  66 S3        29.91S
GLENS FALLS    CLOUDY    30  21  69 SW7       29.88S WCI  23
POUGHKEEPSIE   CLOUDY    33  20  58 SW5       29.95F WCI  29
NEWBURGH       CLOUDY    32  23  69 W9        29.95F WCI  24
MONTGOMERY     CLOUDY    30  21  69 SW6       29.94S WCI  24
WHITE PLAINS   CLOUDY    32  20  61 W6        29.95F WCI  26
ISLIP          CLOUDY    34  24  67 W7        29.98F WCI  28
NEW YORK CITY  CLOUDY    37  21  52 SW10      29.98F WCI  30
CENTRAL PARK   CLOUDY    36  21  54 W9G17     30.00F WCI  29
$$

NYZ005>009-017-018-044>046-055-056-110900-
CENTRAL


CITY           SKY/WX    TMP DP  RH WIND       PRES   REMARKS
FULTON         LGT SNOW  29  24  82 W8        29.90R WCI  21
SYRACUSE       CLOUDY    30  22  72 SW13      29.89R WCI  20
ROME           CLOUDY    29  23  78 CALM      29.90S
ELMIRA         CLOUDY    30  19  63 W5        29.91R WCI  25
BINGHAMTON     CLOUDY    25  17  72 W9        29.85S WCI  15
$$

NYZ026>034-041>043-087-110900-
NORTH


CITY           SKY/WX    TMP DP  RH WIND       PRES   REMARKS
WATERTOWN      CLOUDY    27  18  69 W9        29.89R WCI  18
FORT DRUM      NOT AVBL
OGDENSBURG     CLOUDY    20  14  77 N9        29.91R WCI   9
MASSENA        CLOUDY    19  11  70 N9        29.93R WCI   8
SARANAC LAKE   LGT SNOW  23  22  96 SW6       29.75S FOG     WCI  16
PLATTSBURGH    CLOUDY    28  26  92 CALM      29.84S
$$

NYZ001>004-010>016-019>021-085-110900-
WEST


CITY           SKY/WX    TMP DP  RH WIND       PRES   REMARKS
NIAGARA FALLS  FLURRIES  28  22  78 W7        29.91R WCI  21
BUFFALO        FLURRIES  26  25  96 W5        29.91R WCI  20
DUNKIRK        FLURRIES  30  24  78 W9        29.93R WCI  22
JAMESTOWN      LGT SNOW  24  22  91 W8        29.88R FOG     WCI  15
WELLSVILLE     FLURRIES  26  18  71 SW8       29.86R WCI  18
ROCHESTER      LGT SNOW  27  25  92 SW10      29.91R FOG     WCI  17
PENN YAN       CLOUDY    30  18  60 SW8       29.89R WCI  22
$$

             KEY
       WCI = WIND CHILL INDEX
       VSB = VISIBILITY
       HX  = HEAT INDEX
$$



USA.gov is the U.S. government's official web portal to all federal, state and local government web resources and services.